Terug naar catalogus

CZ-6A DEB

ActiefSSO
NORAD 54443·DEBRIS·🇨🇳 China

Gelanceerd Nov 11, 2022 vanaf Taiyuan Satellite Launch Center

Loading…

Volgende Passages (komende 24 uur)

TLE

VersSource: Space-Track

Epoch: Sep 14, 2026, 12:11 UTC

1 54443U 22151FT  26257.50773473  .00000956  00000-0  44944-3 0  9997
2 54443  98.8069 279.4700 0017996  56.4549 303.8345 14.22327638198648

Volg CZ-6A DEB in realtime met AllMySat

Download on the App Store